Le nostre stazioni meteo in Italia

Pubblicità
Il mio iltempo24.it
Napoli/Capodichino, Italia (16289): Temperatura & dewpoint: 19.05.2019 08:00:00 - 25.05.2019 08:00:00 (CEST)Napoli/Capodichino, Italia (16289): velocità del vento: 19.05.2019 08:00:00 - 25.05.2019 08:00:00 (CEST)Napoli/Capodichino, Italia (16289): direzione del vento: 19.05.2019 08:00:00 - 25.05.2019 08:00:00 (CEST)Napoli/Capodichino, Italia (16289): reduced air pressure: 19.05.2019 08:00:00 - 25.05.2019 08:00:00 (CEST)Napoli/Capodichino, Italia (16289): visibility: 19.05.2019 08:00:00 - 25.05.2019 08:00:00 (CEST)Napoli/Capodichino, Italia (16289): precipitazioni: 19.05.2019 08:00:00 - 25.05.2019 08:00:00 (CEST)
Data & Tempo tt [°C] td [°C] ff [km/h] ff [kn] dd ppp [hPa] vv [km] rr [mm]
25.05.2019 08:00:00 15,0 13,0 9 5 ENE - 6 -
25.05.2019 07:00:00 14,0 12,0 5 3 NE - 7 -
25.05.2019 06:00:00 14,0 13,0 4 2 NE - 7 -
25.05.2019 05:00:00 14,3 12,8 5 3 ENE 1014,9 8 0,0
25.05.2019 04:00:00 15,0 13,0 4 2 - - 10 -
25.05.2019 03:00:00 14,0 13,0 4 2 OSO - 8 -
25.05.2019 02:00:00 14,7 13,0 2 1 - 1014,8 10 -
25.05.2019 01:00:00 - - - - - - - -
25.05.2019 00:00:00 16,0 14,0 2 1 - - 10 -
24.05.2019 23:00:00 16,6 13,5 2 1 SSO 1016,2 10 0,0
24.05.2019 22:00:00 17,0 14,0 2 1 - - 10 -
24.05.2019 21:00:00 17,0 13,0 8 4 OSO - 10 -
24.05.2019 20:00:00 17,9 13,6 11 6 SSO 1014,8 10 -
24.05.2019 19:00:00 19,0 13,0 13 7 SSO - 10 -
24.05.2019 18:00:00 20,0 14,0 15 8 SSO - 10 -
24.05.2019 17:00:00 20,3 13,6 18 10 SSO 1015,0 10 0,0
24.05.2019 16:00:00 21,0 14,0 16 9 SSO - 10 -
24.05.2019 15:00:00 21,0 14,0 15 8 SSO - 10 -
24.05.2019 14:00:00 20,2 13,4 13 7 SO 1015,8 10 -
24.05.2019 13:00:00 20,0 14,0 13 7 SSO - 10 -
24.05.2019 12:00:00 20,0 14,0 11 6 SSO - 10 -
24.05.2019 11:00:00 19,4 13,4 9 5 SSO 1016,3 10 0,0
24.05.2019 10:00:00 18,0 13,0 8 4 S - 10 -
24.05.2019 09:00:00 18,0 13,0 4 2 - - 10 -
24.05.2019 08:00:00 16,5 13,2 4 2 ENE 1016,4 10 -
24.05.2019 07:00:00 13,0 11,0 4 2 NE - 10 -
24.05.2019 06:00:00 12,0 11,0 2 1 - - 10 -
24.05.2019 05:00:00 12,6 10,7 2 1 - 1015,7 10 0,0
24.05.2019 04:00:00 13,0 10,0 2 1 - - 10 -
24.05.2019 03:00:00 13,0 11,0 2 1 - - 10 -
24.05.2019 02:00:00 14,0 11,4 4 2 NE 1016,4 10 -
24.05.2019 01:00:00 14,0 12,0 4 2 N - 10 -
24.05.2019 00:00:00 16,0 12,0 2 1 - - 10 -
23.05.2019 23:00:00 15,9 10,9 2 1 SSE 1016,7 10 0,0
23.05.2019 22:00:00 17,0 12,0 4 2 S - 10 -
23.05.2019 21:00:00 17,0 9,0 4 2 - - 10 -
23.05.2019 20:00:00 18,2 10,1 9 5 O 1016,7 10 -
23.05.2019 19:00:00 19,0 10,0 9 5 O - 10 -
23.05.2019 18:00:00 19,0 11,0 9 5 ONO - 10 -
23.05.2019 17:00:00 19,1 11,1 13 7 O 1016,7 10 0,0
23.05.2019 16:00:00 20,0 11,0 15 8 O - 10 -
23.05.2019 15:00:00 21,0 12,0 22 12 O - 10 -
23.05.2019 14:00:00 20,6 12,5 21 11 ONO 1016,6 10 -
23.05.2019 13:00:00 21,0 14,0 16 9 SSO - 10 -
23.05.2019 12:00:00 20,0 15,0 11 6 S - 10 -
23.05.2019 11:00:00 19,7 14,4 8 4 SO 1017,3 10 0,0
23.05.2019 10:00:00 18,0 13,0 5 3 S - 10 -
23.05.2019 09:00:00 18,0 14,0 4 2 - - 10 -
23.05.2019 08:00:00 17,2 13,9 4 2 - 1017,1 8 -
23.05.2019 07:00:00 14,0 13,0 4 2 OSO - 10 -
23.05.2019 06:00:00 13,0 12,0 2 1 - - 10 -
23.05.2019 05:00:00 13,7 12,2 2 1 NNE 1016,8 10 0,0
23.05.2019 04:00:00 13,0 12,0 4 2 N - 10 -
23.05.2019 03:00:00 14,0 12,0 2 1 - - 10 -
23.05.2019 02:00:00 15,5 13,1 4 2 - 1017,4 10 -
23.05.2019 01:00:00 16,0 13,0 4 2 O - 10 -
23.05.2019 00:00:00 16,0 14,0 2 1 - - 10 -
22.05.2019 23:00:00 16,0 13,8 2 1 SSO 1017,5 10 0,0
22.05.2019 22:00:00 16,0 14,0 5 3 SSO - 10 -
22.05.2019 21:00:00 17,0 14,0 5 3 SSO - 10 -
22.05.2019 20:00:00 17,4 14,0 9 5 SSO 1016,7 10 -
22.05.2019 19:00:00 19,0 14,0 11 6 SSO - 10 -
22.05.2019 18:00:00 19,0 13,0 16 9 SO - 10 -
22.05.2019 17:00:00 19,2 13,2 18 10 SSO 1016,8 10 0,0
22.05.2019 16:00:00 20,0 13,0 18 10 SSO - 10 -
22.05.2019 15:00:00 20,0 10,0 15 8 SO - 10 -
22.05.2019 14:00:00 19,6 9,7 16 9 SO 1017,7 10 -
22.05.2019 13:00:00 20,0 11,0 15 8 SSO - 10 -
22.05.2019 12:00:00 20,0 12,0 11 6 SSO - 10 -
22.05.2019 11:00:00 18,3 11,8 11 6 SO 1017,7 10 0,0
22.05.2019 10:00:00 18,0 12,0 11 6 SO - 10 -
22.05.2019 09:00:00 17,0 13,0 9 5 SSO - 10 -
22.05.2019 08:00:00 16,7 13,3 5 3 SSO 1017,4 10 -
22.05.2019 07:00:00 13,0 12,0 4 2 NE - 10 -
22.05.2019 06:00:00 14,0 13,0 2 1 - - 10 -
22.05.2019 05:00:00 14,8 12,7 8 4 SSO 1016,9 10 0,0
22.05.2019 04:00:00 15,0 13,0 8 4 SO - 10 -
22.05.2019 03:00:00 15,0 13,0 9 5 SSO - 10 -
22.05.2019 02:00:00 15,6 13,0 8 4 SSO 1017,4 10 -
22.05.2019 01:00:00 15,0 13,0 5 3 SO - 10 -
22.05.2019 00:00:00 16,0 13,0 8 4 OSO - 10 -
21.05.2019 23:00:00 15,9 13,0 13 7 SSO 1017,6 10 0,0
21.05.2019 22:00:00 16,0 13,0 11 6 SSO - 10 -
21.05.2019 21:00:00 16,0 13,0 9 5 SSO - 10 -
21.05.2019 20:00:00 16,7 12,9 13 7 SSO 1016,9 10 -
21.05.2019 19:00:00 17,0 13,0 13 7 SSO - 10 -
21.05.2019 18:00:00 19,0 12,0 16 9 SSO - 10 -
21.05.2019 17:00:00 18,5 13,0 16 9 SO 1016,8 10 0,0
21.05.2019 16:00:00 19,0 13,0 21 11 SSO - 10 -
21.05.2019 15:00:00 20,0 10,0 18 10 O - 10 -
21.05.2019 14:00:00 20,4 11,1 16 9 ONO 1016,4 10 -
21.05.2019 13:00:00 19,0 12,0 18 10 O - 10 -
21.05.2019 12:00:00 18,0 12,0 18 10 O - 10 -
21.05.2019 11:00:00 17,8 11,2 18 10 O 1015,6 10 0,0
21.05.2019 10:00:00 17,0 12,0 16 9 O - 10 -
21.05.2019 09:00:00 16,0 13,0 11 6 OSO - 10 -
21.05.2019 08:00:00 15,2 12,6 11 6 O 1014,0 10 -
21.05.2019 07:00:00 15,0 12,0 13 7 O - 7 -
21.05.2019 06:00:00 16,0 13,0 11 6 SO - 8 -
21.05.2019 05:00:00 15,5 12,8 11 6 SO 1013,2 10 0,0
21.05.2019 04:00:00 15,0 12,0 9 5 SO - 10 -
21.05.2019 03:00:00 15,0 12,0 9 5 SO - 10 -
21.05.2019 02:00:00 15,3 11,3 8 4 SO 1013,5 10 -
21.05.2019 01:00:00 15,0 12,0 9 5 OSO - 10 -
21.05.2019 00:00:00 15,0 11,0 5 3 OSO - 10 -
20.05.2019 23:00:00 14,7 11,1 8 4 SSO 1013,6 10 0,0
20.05.2019 22:00:00 15,0 12,0 9 5 SO - 10 -
20.05.2019 21:00:00 15,0 11,0 9 5 SO - 10 -
20.05.2019 20:00:00 15,1 10,8 11 6 SO 1012,4 10 -
20.05.2019 19:00:00 15,0 12,0 11 6 SO - 10 -
20.05.2019 18:00:00 15,0 11,0 8 4 SSO - 10 -
20.05.2019 17:00:00 15,2 9,8 11 6 S 1012,4 10 0,0
20.05.2019 16:00:00 16,0 9,0 22 12 O - 10 -
20.05.2019 15:00:00 18,0 12,0 21 11 SO - 10 -
20.05.2019 14:00:00 18,3 12,6 16 9 SSO 1011,8 10 -
20.05.2019 13:00:00 18,0 12,0 15 8 SSO - 10 -
20.05.2019 12:00:00 16,0 11,0 11 6 E - 10 -
20.05.2019 11:00:00 12,3 10,8 9 5 E 1011,8 8 0,0
20.05.2019 10:00:00 11,0 10,0 13 7 ENE - 6 -
20.05.2019 09:00:00 12,0 10,0 18 10 NO - 4,0 -
20.05.2019 08:00:00 16,2 12,5 11 6 SO 1009,9 10 -
20.05.2019 07:00:00 16,0 12,0 11 6 SO - 10 -
20.05.2019 06:00:00 15,0 12,0 9 5 SSO - 10 -
20.05.2019 05:00:00 15,2 12,2 9 5 SO 1009,3 10 0,0
20.05.2019 04:00:00 15,0 12,0 11 6 SO - 10 -
20.05.2019 03:00:00 15,0 12,0 11 6 SO - 10 -
20.05.2019 02:00:00 14,7 11,0 8 4 SO 1009,8 10 -
20.05.2019 01:00:00 14,0 11,0 2 1 - - 10 -
20.05.2019 00:00:00 15,0 11,0 5 3 OSO - 10 -
19.05.2019 23:00:00 15,2 10,5 8 4 SO 1010,1 10 0,0
19.05.2019 22:00:00 15,0 10,0 9 5 OSO - 10 -
19.05.2019 21:00:00 15,0 10,0 13 7 O - 10 -
19.05.2019 20:00:00 15,9 9,7 13 7 OSO 1009,4 10 -
19.05.2019 19:00:00 17,0 10,0 21 11 O - 10 -
19.05.2019 18:00:00 18,0 10,0 22 12 O - 10 -
19.05.2019 17:00:00 18,3 10,4 24 13 O 1007,8 10 0,0
19.05.2019 16:00:00 19,0 11,0 24 13 ONO - 10 -
19.05.2019 15:00:00 19,0 11,0 29 16 O - 10 -
19.05.2019 14:00:00 19,5 11,9 22 12 O 1007,0 10 -
19.05.2019 13:00:00 18,0 12,0 24 13 O - 10 -
19.05.2019 12:00:00 18,0 14,0 13 7 SO - 10 -
19.05.2019 11:00:00 17,6 13,3 16 9 SSO 1005,8 10 0,0
19.05.2019 10:00:00 17,0 14,0 11 6 SSO - 10 -
19.05.2019 09:00:00 17,0 14,0 9 5 S - 10 -
19.05.2019 08:00:00 16,1 13,6 4 2 - 1005,7 10 -

tt = Temperatura
td = dewpoint
ff = velocità del vento
dd = direzione del vento
ppp = reduced air pressure
vv = visibility
rr = precipitazioni

Stazioni seguenti

WeatherPro
AMSI
MeteoEarth